Other Public Products
Issued by NWS Grand Forks, ND

Home | Current Version | Previous Version | Text Only | Print | Product List | Glossary Off
Versions: 1 2 3 4 5 6 7 8 9 10 11 12 13 14 15 16 17 18 19 20 21 22 23 24 25 26 27 28 29 30 31 32 33 34 35 36 37 38 39 40 41 42 43 44 45 46 47 48 49 50

000
FPUS83 KFGF 252031
OPUFGF
PRAIRIE TO PINES WEATHER ROUNDUP
NATIONAL WEATHER SERVICE EASTERN NORTH DAKOTA/GRAND FORKS ND
300 PM CDT MON MAY 25 2015

 **SATELLITE DATA USED TO AUGMENT SKY COVER AT AUTOMATED STATIONS**
 *****  WEATHER ACROSS EASTERN NORTH DAKOTA  *****

CITY           SKY/WX    TMP DP  RH WIND       PRES   REMARKS
GRAND FORKS    CLOUDY    74  50  42 VRB5      29.75S
GRAND FORKS AF CLOUDY    74  48  40 VRB1      29.76S
GRAND CITY NWS   N/A     70 N/A N/A SE6         N/A
BUXTON           N/A     70  63  77 SE8         N/A
DEVILS LAKE    MOSUNNY   77  36  22 NE17      29.77S
FARGO          CLOUDY    65  54  67 NE14      29.77S
WAHPETON ARPT  CLOUDY    63  50  63 NE21G26   29.75R
$$

 *****  WEATHER ACROSS CENTRAL AND WESTERN NORTH DAKOTA  *****

CITY           SKY/WX    TMP DP  RH WIND       PRES   REMARKS
JAMESTOWN      PTSUNNY   72  51  47 VRB5      29.77F
BISMARCK       CLOUDY    67  54  63 W5        29.85F
MINOT          PTSUNNY   78  42  27 NE12      29.81F
MINOT AFB      MOSUNNY   76  42  29 E2        29.80F
GARRISON         N/A     74  47  38 E6        29.83F
WILLISTON      CLOUDY    75  44  33 SE7       29.85S
DICKINSON      CLOUDY    62  53  72 E8        29.88S
HETTINGER      CLOUDY    60  54  80 E10       29.90R
$$

 *****  OTHER OBSERVATIONS NORTHEAST NORTH DAKOTA  *****

CITY           SKY/WX    TMP DP  RH WIND       PRES   REMARKS
WALHALLA         N/A     79  39  24 NW3       29.75F
LANGDON        FAIR      79  43  27 NE15      29.78F
CAVALIER       FAIR      79  37  22 E7        29.75S
GRAFTON        FAIR      77  46  33 NE8G17    29.76S
CANDO          MOCLDY    77  36  22 E9G21     29.78S
FORT TOTTEN      N/A     79  37  22 NE7       29.95S
ROLLA            N/A     77  36  22 NE10      29.81S
RUGBY          NOT AVBL
 ***** THE ABOVE OBSERVATIONS ARE NON NWS ARE NOT QUALITY
        CONTROLLED AND MAY MIS-REPORT RAIN FOR SNOW...
$$

 *****  OTHER OBSERVATIONS SOUTHEAST NORTH DAKOTA *****

CITY           SKY/WX    TMP DP  RH WIND       PRES   REMARKS
COOPERSTOWN    NOT AVBL
VALLEY CITY    MOCLDY    68  57  68 W5        29.78F
OAKES            N/A     64  55  72 NE15      29.81R
GWINNER        NOT AVBL
SHEYENNE NWR     N/A     66  53  63 NE13      29.95S
BUFFALO        NOT AVBL
WYNDMERE         N/A     64  54  68 NE20        N/A
 ***** THE ABOVE OBSERVATIONS ARE NON NWS ARE NOT QUALITY
       CONTROLLED AND MAY MIS-REPORT RAIN FOR SNOW...
$$

  *****  WEATHER ACROSS NORTHERN MINNESOTA  *****

CITY           SKY/WX    TMP DP  RH WIND       PRES   REMARKS
FLAG ISLAND    CLOUDY    61  54  77 S9        29.75S
WARROAD        CLOUDY    66  55  68 E5        29.77S
ROSEAU         CLOUDY    73  46  38 E6        29.75F
HALLOCK        CLOUDY    77  43  29 NE6       29.74F
THF RVR FALLS  CLOUDY    66  52  59 SE7       29.78S
HALSTAD          N/A     67  46  47 E8          N/A
FOSSTON        DRIZZLE   61  57  88 CALM      29.78S
BAUDETTE       CLOUDY    65  52  62 SW9       29.76F
WASKISH        DRIZZLE   64  55  72 CALM      29.78R
CROOKSTON      CLOUDY    70  54  56 SW6       29.78R
$$
  *****  WEATHER ACROSS CENTRAL AND WEST MINNESOTA  *****

CITY           SKY/WX    TMP DP  RH WIND       PRES   REMARKS
BEMIDJI        LGT RAIN  59  56  88 NE9       29.77S
PARK RAPIDS    LGT RAIN  60  54  80 NE18G28   29.71R
WADENA         RAIN      57  55  94 N15G23    29.69R
DETROIT LAKES  LGT RAIN  59  54  82 NE10      29.77R
MOORHEAD       CLOUDY    64  54  68 NE14      29.78R
FERGUS FALLS   CLOUDY    61  55  82 NE14G23   29.73R
ELBOW LAKE     CLOUDY    61  56  83 NE21G30   29.70R
MORRIS MN      CLOUDY    64  57  77 N13       29.70R
STAPLES        DRIZZLE   57  57 100 CALM      29.68R
WHEATON        CLOUDY    57  54  88 N17G26    29.76R
$$
  *****  WEATHER ELSEWHERE ACROSS MINNESOTA  *****

CITY           SKY/WX    TMP DP  RH WIND       PRES   REMARKS
DULUTH         LGT RAIN  54  51  90 E6        29.71R FOG
INTRNTL FALLS  CLOUDY    65  51  60 SE5       29.77S
ELY            LGT RAIN  57  54  88 NE7G16    29.73S
CLOQUET        DRIZZLE   52  50  93 E7        29.70S
BRAINERD       CLOUDY    58  56  93 E7        29.68R FOG
HIBBING        LGT RAIN  58  53  84 NE13G18   29.70R
ALEXANDRIA     CLOUDY    62  57  83 NW7       29.70R
SAINT CLOUD    LGT RAIN  63  58  83 SW12      29.69R
MINNEAPOLIS    CLOUDY    68  58  70 SW12      29.72R
$$

  *****  WEATHER ACROSS SOUTH DAKOTA  *****

CITY           SKY/WX    TMP DP  RH WIND       PRES   REMARKS
SIOUX FALLS    PTSUNNY   71  59  65 VRB5      29.76R
BROOKINGS      CLOUDY    61  55  82 NW10      29.79R
WATERTOWN      CLOUDY    59  54  83 N10       29.78R
HURON          CLOUDY    63  56  78 NE15      29.79R
SISSETON         N/A     63  55  75 NE24      29.74R
ABERDEEN       PTSUNNY   67  52  58 NE20G26   29.79R
MITCHELL       PTSUNNY   69  58  67 NW8       29.77S
PIERRE         CLOUDY    60  55  83 E12       29.81R
MOBRIDGE       CLOUDY    64  57  78 E8        29.82S
RAPID CITY     CLOUDY    61  53  75 N17       29.84R
$$

  *****  SOME WEATHER IN NEARBY STATES *****

CITY           SKY/WX    TMP DP  RH WIND       PRES   REMARKS
GLASGOW MT     MOSUNNY   77  41  27 SE13      29.84F
GREAT FALLS MT MOSUNNY   68  41  37 VRB3      29.88F
CHEYENNE WY    CLOUDY    52  44  74 N13G22    29.94S
SCOTTSBLUFF NE LGT RAIN  55  53  93 W12       29.88S
OMAHA NE       MOSUNNY   79  57  46 SW13G23   29.78F
DES MOINES IA  MOSUNNY   79  60  52 S17G28    29.82F
DAVENPORT IA   MOSUNNY   77  63  61 SW20      29.90R
CHICAGO IL     PTSUNNY   75  61  61 SW20G26   29.90R
EAU CLAIRE WI  CLOUDY    70  59  68 SW15      29.73R
LA CROSSE WI   MOSUNNY   80  61  52 SW15G29   29.75R
$$

  *****  SOME NATIONAL WEATHER *****

CITY           SKY/WX    TMP DP  RH WIND       PRES   REMARKS
LA GUARDIA NY  MOSUNNY   83  56  39 S17       30.16F
RALEIGH NC     MOSUNNY   83  56  39 VRB7      30.27F
ATLANTA GA     PTSUNNY   80  66  62 SE9       30.21F
NEW ORLEANS LA TSTM      73  68  84 E10       30.06S
OKLAHOMA CITY  TSTM      71  66  84 S10       29.84F
ALBUQUERQUE NM TSTM      67  42  40 NW25G37   29.97F
SALT LAKE CITY MOSUNNY   67  43  41 NW10      29.95F
LOS ANGELES CA PTSUNNY   63  55  75 W8        30.01F
BOISE ID       MOSUNNY   75  41  29 CALM      29.85F
SEATTLE WA     CLOUDY    57  48  72 W7        30.04R
$$

*** WEATHER ACROSS MANITOBA...SASKATCHEWAN AND ONTARIO ***
                ***ONTARIO***

CITY           SKY/WX    TMP DP  RH WIND       PRES   REMARKS
GERALDTON      CLOUDY    63  52  67 SE6       29.81F
THUNDER BAY    LGT RAIN  55  55 100 E13       29.74F
SIOUX LOOKOUT  CLOUDY    75  39  27 NE3       29.74F
TORONTO        PTSUNNY   81  61  50 SW23G31   29.97S
BIG TROUT LK   SUNNY     68  37  32 S6        29.80F
PICKLE LAKE    CLOUDY    75  28  17 SE6       29.77F
DRYDEN         PTSUNNY   75  39  27 E7        29.74F
KENORA         CLOUDY    77  48  36 NE6       29.76S
$$
                *** MANITOBA***

CITY           SKY/WX    TMP DP  RH WIND       PRES   REMARKS
BRANDON        PTSUNNY   79  39  24 W9G17     29.76F
DAUPHIN        SUNNY     81  39  22 N8        29.76F
ISLAND LAKE    MOSUNNY   75  37  25 NW5       29.77F
PILOT MOUND      N/A     79  37  22 N7G17       N/A
THE PAS        MOSUNNY   81  34  18 S5G17     29.73F
THOMPSON       MOSUNNY   77  41  27 SW10G17   29.71F
WINNIPEG       CLOUDY    81  37  21 E10       29.74F
LYNN LAKE      MOSUNNY   79  30  17 W9        29.66F
CHURCHILL      CLOUDY    41  27  56 NE16      29.89R
GILLAM         MOSUNNY   61  36  39 N8        29.78F
$$
                ***SASKATCHEWAN***

CITY           SKY/WX    TMP DP  RH WIND       PRES   REMARKS
ESTEVAN        CLOUDY    75  39  27 S5        29.83S
KINDERSLEY     PTSUNNY   77  28  16 SE5       29.85F
LLOYDMINSTER   PTSUNNY   75  25  15 SW9G32    29.84R
PRINCE ALBERT  CLOUDY    81  37  21 W14       29.77
REGINA         PTSUNNY   79  37  22 NW14G21   29.84R



USA.gov is the U.S. government's official web portal to all federal, state and local government web resources and services.